• In Kazakhstan
  • List of Countries
  • For 7 days
  • Water Temperature
  • Satellite Maps
  • Weather Map
  • News
  • Weather Widgets
  • user-avatar
    Login

    Hourly Weather Darlington

    Today, 19 November, Monday

    Time Temperature Precipitation Wind Pressure Humidity
    00:00 +5°C° 0 mm 4 mps 767 mmHg 92%
    01:00 +5°C° 0 mm 4 mps 766 mmHg 91%
    02:00 +6°C° 0 mm 4 mps 766 mmHg 90%
    03:00 +6°C° 0 mm 4 mps 766 mmHg 89%
    04:00 +6°C° 0 mm 4 mps 766 mmHg 88%
    05:00 +6°C° 0 mm 4 mps 765 mmHg 86%
    06:00 +6°C° 0 mm 5 mps 765 mmHg 85%
    07:00 +6°C° 0 mm 5 mps 765 mmHg 84%
    08:00 +6°C° 0 mm 5 mps 765 mmHg 82%
    09:00 +6°C° 0 mm 5 mps 765 mmHg 81%
    10:00 +6°C° 0 mm 5 mps 765 mmHg 80%
    11:00 +5°C° 0 mm 6 mps 765 mmHg 79%
    12:00 +5°C° 0 mm 6 mps 765 mmHg 77%
    13:00 +5°C° 0.1 mm 6 mps 764 mmHg 77%
    14:00 +5°C° 0.1 mm 6 mps 764 mmHg 77%
    15:00 +5°C° 0.1 mm 6 mps 763 mmHg 77%
    16:00 +5°C° 0.1 mm 6 mps 763 mmHg 77%
    17:00 +5°C° 0.1 mm 6 mps 763 mmHg 77%
    18:00 +5°C° 0.1 mm 6 mps 763 mmHg 77%
    19:00 +5°C° 0.1 mm 7 mps 763 mmHg 77%
    20:00 +5°C° 0.1 mm 7 mps 762 mmHg 76%
    21:00 +5°C° 0.1 mm 7 mps 762 mmHg 76%
    22:00 +5°C° 0.1 mm 7 mps 762 mmHg 76%
    23:00 +4°C° 0.1 mm 7 mps 762 mmHg 76%

    Tomorrow, 20 November, Tuesday

    Time Temperature Precipitation Wind Pressure Humidity
    00:00 +4°C° 0.1 mm 7 mps 761 mmHg 76%
    01:00 +4°C° 0.1 mm 7 mps 761 mmHg 76%
    02:00 +4°C° 0.1 mm 7 mps 760 mmHg 77%
    03:00 +4°C° 0.1 mm 7 mps 760 mmHg 77%
    04:00 +4°C° 0.2 mm 7 mps 760 mmHg 77%
    05:00 +4°C° 0.2 mm 7 mps 759 mmHg 77%
    06:00 +4°C° 0.2 mm 7 mps 759 mmHg 77%
    07:00 +4°C° 0.3 mm 7 mps 759 mmHg 77%
    08:00 +4°C° 0.3 mm 8 mps 758 mmHg 77%
    09:00 +4°C° 0.3 mm 8 mps 758 mmHg 77%
    10:00 +5°C° 0.3 mm 8 mps 758 mmHg 76%
    11:00 +5°C° 0.3 mm 8 mps 757 mmHg 75%
    12:00 +5°C° 0.3 mm 9 mps 757 mmHg 73%
    13:00 +5°C° 0.3 mm 9 mps 756 mmHg 74%
    14:00 +5°C° 0.3 mm 9 mps 756 mmHg 74%
    15:00 +5°C° 0.3 mm 8 mps 755 mmHg 75%
    16:00 +5°C° 0.4 mm 8 mps 755 mmHg 77%
    17:00 +5°C° 0.4 mm 8 mps 755 mmHg 78%
    18:00 +4°C° 0.4 mm 8 mps 755 mmHg 80%
    19:00 +4°C° 0.7 mm 8 mps 754 mmHg 80%
    20:00 +4°C° 0.7 mm 8 mps 754 mmHg 81%
    21:00 +4°C° 0.7 mm 8 mps 754 mmHg 82%
    22:00 +4°C° 0.9 mm 8 mps 754 mmHg 82%
    23:00 +4°C° 0.9 mm 8 mps 753 mmHg 83%

    Day after tomorrow, 21 November, Wednesday

    Time Temperature Precipitation Wind Pressure Humidity
    00:00 +4°C° 0.9 mm 8 mps 753 mmHg 83%
    01:00 +4°C° 1.1 mm 8 mps 752 mmHg 84%
    02:00 +4°C° 1.1 mm 7 mps 752 mmHg 85%
    03:00 +4°C° 1.1 mm 7 mps 751 mmHg 86%
    04:00 +4°C° 0.7 mm 7 mps 751 mmHg 85%
    05:00 +4°C° 0.7 mm 6 mps 751 mmHg 85%
    06:00 +4°C° 0.7 mm 6 mps 750 mmHg 84%
    07:00 +4°C° 0.4 mm 6 mps 751 mmHg 84%
    08:00 +4°C° 0.4 mm 6 mps 751 mmHg 84%
    09:00 +5°C° 0.4 mm 5 mps 752 mmHg 84%
    10:00 +4°C° 0.3 mm 6 mps 752 mmHg 82%
    11:00 +4°C° 0.3 mm 6 mps 753 mmHg 79%
    12:00 +5°C° 0.3 mm 6 mps 754 mmHg 77%
    13:00 +4°C° 0.1 mm 6 mps 754 mmHg 77%
    14:00 +5°C° 0.1 mm 5 mps 754 mmHg 77%
    15:00 +5°C° 0.1 mm 4 mps 755 mmHg 77%
    16:00 +4°C° 0 mm 4 mps 755 mmHg 79%
    17:00 +3°C° 0 mm 4 mps 756 mmHg 81%
    18:00 +3°C° 0 mm 3 mps 757 mmHg 83%
    19:00 +2°C° 0 mm 3 mps 757 mmHg 83%
    20:00 +3°C° 0 mm 2 mps 758 mmHg 83%
    21:00 +3°C° 0 mm 2 mps 758 mmHg 83%
    22:00 +3°C° 0.1 mm 2 mps 759 mmHg 82%
    23:00 +4°C° 0.1 mm 1 mps 759 mmHg 82%

    22 November, Thursday

    Time Temperature Precipitation Wind Pressure Humidity
    00:00 +4°C° 0.1 mm 1 mps 759 mmHg 81%
    01:00 +3°C° 0.2 mm 2 mps 759 mmHg 83%
    02:00 +4°C° 0.2 mm 2 mps 759 mmHg 84%
    03:00 +4°C° 0.2 mm 3 mps 759 mmHg 86%
    04:00 +4°C° 0.1 mm 3 mps 759 mmHg 88%
    05:00 +5°C° 0.1 mm 3 mps 759 mmHg 90%
    06:00 +5°C° 0.1 mm 4 mps 759 mmHg 91%
    07:00 +5°C° 0.1 mm 4 mps 759 mmHg 91%
    08:00 +5°C° 0.1 mm 4 mps 759 mmHg 91%
    09:00 +5°C° 0.1 mm 4 mps 759 mmHg 90%
    10:00 +5°C° 0.2 mm 4 mps 759 mmHg 90%
    11:00 +6°C° 0.2 mm 4 mps 759 mmHg 90%
    12:00 +6°C° 0.2 mm 4 mps 759 mmHg 90%
    13:00 +6°C° 0.3 mm 4 mps 758 mmHg 91%
    14:00 +7°C° 0.3 mm 3 mps 758 mmHg 91%
    15:00 +7°C° 0.3 mm 3 mps 758 mmHg 92%
    16:00 +5°C° 0.2 mm 3 mps 758 mmHg 92%
    17:00 +5°C° 0.2 mm 3 mps 758 mmHg 92%
    18:00 +5°C° 0.2 mm 3 mps 758 mmHg 93%
    19:00 +5°C° 0.2 mm 3 mps 758 mmHg 92%
    20:00 +5°C° 0.2 mm 3 mps 758 mmHg 92%
    21:00 +5°C° 0.2 mm 3 mps 758 mmHg 92%
    22:00 +5°C° 0.1 mm 3 mps 758 mmHg 92%
    23:00 +6°C° 0.1 mm 2 mps 758 mmHg 93%

    23 November, Friday

    Time Temperature Precipitation Wind Pressure Humidity
    00:00 +6°C° 0.1 mm 2 mps 758 mmHg 93%
    01:00 +6°C° 0.1 mm 2 mps 758 mmHg 94%
    02:00 +5°C° 0.1 mm 2 mps 758 mmHg 94%
    03:00 +5°C° 0.1 mm 2 mps 758 mmHg 94%
    04:00 +5°C° 0 mm 2 mps 758 mmHg 94%
    05:00 +5°C° 0 mm 1 mps 758 mmHg 94%
    06:00 +5°C° 0 mm 1 mps 758 mmHg 94%
    07:00 +4°C° 0 mm 1 mps 758 mmHg 93%
    08:00 +3°C° 0 mm 2 mps 758 mmHg 92%
    09:00 +3°C° 0 mm 2 mps 758 mmHg 91%
    10:00 +4°C° 0 mm 2 mps 758 mmHg 86%
    11:00 +5°C° 0 mm 2 mps 758 mmHg 81%
    12:00 +6°C° 0 mm 2 mps 758 mmHg 76%
    13:00 +6°C° 0 mm 2 mps 758 mmHg 79%
    14:00 +7°C° 0 mm 1 mps 758 mmHg 82%
    15:00 +7°C° 0 mm 1 mps 757 mmHg 86%
    16:00 +6°C° 0 mm 1 mps 757 mmHg 88%
    17:00 +6°C° 0 mm 1 mps 757 mmHg 90%
    18:00 +6°C° 0 mm 1 mps 757 mmHg 92%
    19:00 +6°C° 0 mm 1 mps 757 mmHg 92%
    20:00 +6°C° 0 mm 1 mps 757 mmHg 93%
    21:00 +6°C° 0 mm 1 mps 757 mmHg 94%
    22:00 +6°C° 0 mm 1 mps 757 mmHg 94%
    23:00 +6°C° 0 mm 1 mps 757 mmHg 94%

    24 November, Saturday

    Time Temperature Precipitation Wind Pressure Humidity
    00:00 +6°C° 0 mm 1 mps 757 mmHg 94%
    01:00 +6°C° 0 mm 1 mps 757 mmHg 94%
    02:00 +6°C° 0 mm 1 mps 757 mmHg 94%
    03:00 +6°C° 0 mm 1 mps 757 mmHg 94%
    04:00 +6°C° 0 mm 1 mps 757 mmHg 94%
    05:00 +6°C° 0 mm 1 mps 756 mmHg 94%
    06:00 +5°C° 0 mm 2 mps 756 mmHg 94%
    07:00 +5°C° 0 mm 2 mps 757 mmHg 94%
    08:00 +6°C° 0 mm 2 mps 757 mmHg 94%
    09:00 +6°C° 0 mm 2 mps 757 mmHg 94%
    10:00 +7°C° 0.1 mm 3 mps 757 mmHg 92%
    11:00 +8°C° 0.1 mm 3 mps 757 mmHg 90%
    12:00 +8°C° 0.1 mm 4 mps 757 mmHg 88%
    13:00 +8°C° 0.1 mm 4 mps 757 mmHg 89%
    14:00 +8°C° 0.1 mm 3 mps 757 mmHg 90%
    15:00 +8°C° 0.1 mm 3 mps 757 mmHg 91%
    16:00 +7°C° 0.3 mm 4 mps 757 mmHg 91%
    17:00 +7°C° 0.3 mm 4 mps 757 mmHg 92%
    18:00 +7°C° 0.3 mm 4 mps 757 mmHg 93%
    19:00 +7°C° 0.4 mm 4 mps 757 mmHg 92%
    20:00 +7°C° 0.4 mm 5 mps 757 mmHg 92%
    21:00 +7°C° 0.4 mm 5 mps 757 mmHg 92%
    22:00 +6°C° 0.4 mm 5 mps 757 mmHg 91%
    23:00 +6°C° 0.4 mm 5 mps 757 mmHg 91%
    Show more